Location: Woodhurst
(52.3667°N, 0.0667°W)
Time: 21:44:51
(UTC+00:00)

Cosmos 1842 - Pass Details

Date: 19 May 2025
Orbit: 440 x 450 km, 82.5° (Epoch: 18 June)

Event Time Altitude Azimuth Distance (km) Brightness Sun altitude
Exits shadow 23:38:52 47° 202° (SSW) 613 3.1 -17.5°
Maximum altitude 23:39:47 80° 281° (W) 467 2.9 -17.5°
Drops below altitude 10° 23:43:17 10° 9° (N) 1,602 6.9 -17.6°
Sets 23:45:22 0° 10° (N) 2,482 8.2 -17.6°
